{"data":{"norad_id":64573,"epoch":"2026-05-25T00:46:13.720800Z","epoch_age_seconds":62341,"freshness":"FRESH","line1":"1 64573U 25135AX  26145.03210325  .00000909  00000+0  79487-4 0  9991","line2":"2 64573  97.7084 259.4219 0002400  32.0349 328.1019 14.99183241 50451","mean_motion":14.99183241,"eccentricity":0.00024,"inclination_deg":97.7084,"raan_deg":259.4219,"arg_perigee_deg":32.0349,"mean_anomaly_deg":328.1019,"bstar":7.9487e-5,"rev_number":5045,"period_min":96.052301054238,"perigee_km":567.75115170677,"apogee_km":571.08597837799,"semimajor_km":6947.5555650424,"source":"CELESTRAK","updated_at":"2026-05-25T13:38:04.621796Z"}}